Regional Weather Roundup
Issued by NWS

Home | Current Version | Previous Version | Text Only | Print | Product List | Glossary Off
Versions: 1 2 3 4 5 6 7 8 9 10 11 12 13 14 15 16 17 18 19 20 21 22 23 24 25 26 27 28 29 30 31 32 33 34 35 36 37 38 39 40 41 42 43 44 45 46 47 48 49 50

000
ASUS43 KBIS 041402
RWRND

NORTH DAKOTA REGIONAL WEATHER ROUNDUP
NATIONAL WEATHER SERVICE BISMARCK ND
900 AM CDT TUE AUG 04 2015

NOTE: "FAIR" INDICATES FEW OR NO CLOUDS BELOW 12,000 FEET WITH NO
SIGNIFICANT WEATHER AND/OR OBSTRUCTIONS TO VISIBILITY.


NDZ001>003-009>011-017-041500-
NORTHWEST NORTH DAKOTA

CITY           SKY/WX    TMP DP  RH WIND       PRES   REMARKS
WILLISTON      MOSUNNY   70  51  51 E3        29.97S
MINOT          SUNNY     63  52  67 CALM      30.01S
MINOT AFB      SUNNY     65  55  69 SE5       30.00F
$$

NDZ018>021-031>035-040>046-041500-
SOUTHWEST NORTH DAKOTA

CITY           SKY/WX    TMP DP  RH WIND       PRES   REMARKS
BISMARCK       SUNNY     64  53  67 E7        30.00F
DICKINSON      SUNNY     63  52  67 E9        29.98R
GARRISON         N/A     66  56  70 E3        30.00S
HETTINGER ARPT SUNNY     64  54  69 E7        29.99S
$$

NDZ004>008-012>016-024-026-027-054-041500-
NORTHEAST NORTH DAKOTA

CITY           SKY/WX    TMP DP  RH WIND       PRES   REMARKS
GRAND FORKS    MOSUNNY   61  53  75 N3        30.03R
GRND FRKS AFB  SUNNY     61  54  77 N7        30.03R
DEVILS LAKE    SUNNY     63  48  59 E7        30.03S
$$

NDZ022-023-025-028>030-036>039-047>053-041500-
SOUTHEAST NORTH DAKOTA

CITY           SKY/WX    TMP DP  RH WIND       PRES   REMARKS
FARGO          SUNNY     61  52  72 SW5       30.03R
JAMESTOWN      SUNNY     66  56  70 CALM      30.02S
$$




USA.gov is the U.S. government's official web portal to all federal, state and local government web resources and services.